CAPE
0 0 0 0 0 0 0 0 0 0 0 0 0 0 0 0 0 0 0 0 0 0
0 0 0 0 0 0 0 0 0 0 0 0 0 0 0 0 0 0 0 0 0 0
0 0 0 0 0 0 0 0 0 0 0 0 0 0 0 0 0 0 0 0 0 0
0 0 0 0 0 0 0 0 0 0 0 0 0 0 0 0 0 0 0 0 0 0
0 0 0 0 0 0 0 0 0 0 0 0 0 0 0 0 0 0 0 0 0 0
0 0 0 0 0 0 0 0 0 0 0 0 0 0 0 0 0 0 0 0 0 0
0 0 0 0 0 0 0 0 0 0 0 0 0 0 0 0 0 0 0 0 0 0
0 0 0 0 0 0 0 0 0 0 0 0 0 0 0 0 0 0 0 0 0 1
0 0 0 0 0 0 0 0 0 0 0 0 0 0 5 12 6 4 8 5 1 2
0 0 0 0 0 0 0 0 0 0 0 0 0 1 8 20 11 15 4 1 3 5
0 0 0 0 0 0 0 0 0 0 0 0 0 3 15 25 8 2 1 0 0 0
0 0 0 0 0 0 0 0 0 0 0 0 0 3 13 22 6 6 0 1 0 0
0 0 0 0 0 0 0 0 0 0 0 0 0 1 6 14 14 5 15 4 2 12
0 0 0 0 0 0 0 0 0 0 0 0 0 0 6 21 23 27 19 5 8 9
CIN
0 0 0 0 0 0 0 0 0 0 0 0 0 0 0 0 0 0 0 0 0 0
0 0 0 0 0 0 0 0 0 0 0 0 0 0 0 0 0 0 0 0 0 0
0 0 0 0 0 0 0 0 0 0 0 0 0 0 0 0 0 0 0 0 0 0
0 0 0 0 0 0 0 0 0 0 0 0 0 0 0 0 0 0 0 0 0 0
0 0 0 0 0 0 0 0 0 0 0 0 0 0 0 0 0 0 0 0 0 0
0 0 0 0 0 0 0 0 0 0 0 0 0 0 0 0 0 0 0 0 0 0
0 0 0 0 0 0 0 0 0 0 0 0 0 0 0 0 0 0 0 0 0 0
0 0 0 0 0 0 0 0 0 0 0 0 0 0 0 0 0 0 0 0 0 0
0 0 0 0 0 0 0 0 0 0 0 0 0 0 0 0 0 0 0 0 0 -1
0 0 0 0 0 0 0 0 0 0 0 0 0 0 0 0 0 0 -1 0 0 0
0 0 0 0 0 0 0 0 0 0 0 0 0 0 0 0 0 0 0 0 0 0
0 0 0 0 0 0 0 0 0 0 0 0 0 0 0 0 0 0 0 0 0 0
0 0 0 0 0 0 0 0 0 0 0 0 0 0 0 0 0 0 0 0 0 0
0 0 0 0 0 0 0 0 0 0 0 0 0 0 0 0 0 0 0 0 0 0
Wind_Speed
4 3 3 3 4 4 5 6 8 5 5 5 6 6 5 5 5 6 5 7 6 6
4 5 4 5 5 5 5 7 8 7 8 7 6 6 7 6 7 7 7 8 8 6
4 4 5 5 6 7 7 7 8 8 8 8 7 6 5 7 7 8 7 7 8 7
4 5 5 6 6 7 7 7 8 8 9 9 8 7 7 7 9 10 9 8 9 11
6 5 6 7 7 8 8 8 9 9 9 9 9 9 9 10 10 10 11 10 10 11
6 6 7 7 8 8 8 9 9 10 9 10 10 10 10 11 11 11 12 11 12 12
7 7 7 8 8 9 8 9 9 9 9 10 10 12 12 13 12 12 12 12 12 13
8 7 8 9 9 9 9 9 9 10 10 10 10 10 11 12 12 13 13 13 13 14
7 8 8 9 9 9 9 9 9 10 11 11 10 19 21 19 13 14 15 14 13 13
8 9 9 9 9 9 10 9 10 10 11 12 12 22 23 23 13 13 12 13 13 14
9 10 10 9 9 9 9 9 10 10 11 13 12 21 22 23 15 13 14 13 14 15
9 9 9 9 9 9 8 9 9 12 12 13 13 21 23 21 14 14 15 14 14 15
8 8 8 9 8 7 8 11 10 14 13 16 16 20 25 22 11 14 12 14 15 24
7 9 9 7 4 7 7 10 10 13 12 13 14 15 25 24 13 11 11 12 12 11
Wind_Direction
12 1 337 340 331 317 312 310 308 303 318 308 312 312 308 304 296 287 296 283 269 274
10 346 326 318 306 296 292 298 306 315 306 302 299 298 303 297 295 288 287 284 283 275
328 310 297 297 292 291 292 294 295 298 296 297 293 289 283 290 287 284 279 278 274 270
294 289 287 289 288 285 291 291 291 294 294 292 292 288 284 276 276 270 273 271 277 278
282 283 278 279 282 287 285 286 287 287 287 288 288 287 281 279 283 279 276 274 269 269
281 278 273 273 279 282 282 280 280 286 283 283 282 284 281 277 275 269 265 265 265 267
265 267 267 269 271 273 275 277 277 275 277 280 281 282 282 281 276 271 266 264 265 269
263 263 267 269 270 271 270 273 277 280 280 280 278 276 271 267 266 268 273 272 272 271
263 267 265 266 268 269 269 271 274 275 279 279 276 282 284 285 278 274 274 277 274 275
258 261 259 261 263 263 265 269 270 272 275 276 275 282 284 282 275 276 278 279 281 280
242 246 251 250 253 258 261 266 269 275 276 275 275 281 283 285 286 281 277 277 277 274
237 244 246 246 245 254 259 263 267 278 278 273 275 282 284 284 286 281 278 274 270 269
237 233 240 242 240 245 250 264 272 283 281 277 282 283 284 284 273 270 272 272 270 272
236 237 239 242 220 245 246 268 274 275 273 273 270 272 276 277 271 270 273 271 273 271